Bangor, ME

8:09 PM EST on December 07, 2016 (GMT -0500)
Bangor International

Weather History for KBGR - April, 2013

Change the Weather History Date:

Saturday, April 20, 2013

  Actual Average Record
Temperature  
Mean Temperature 47 °F 44 °F  
Max Temperature 57 °F 55 °F 89 °F (1927)
Min Temperature 37 °F 34 °F 21 °F (1947)
Degree Days  
Heating Degree Days 18 21  
Month to date heating degree days 518 491  
Since 1 July heating degree days 6898 7214  
Cooling Degree Days 0 0  
Month to date cooling degree days 0 0  
Year to date cooling degree days 0 0  
Moisture  
Dew Point 40 °F    
Average Humidity 66    
Maximum Humidity 100    
Minimum Humidity 32    
Precipitation  
Precipitation 0.46 in 0.11 in 0.91 in (1934)
Month to date precipitation 1.59 2.44  
Year to date precipitation 6.55 11.23  
Snow  
Snow 0.00 in 0.10 in 0.40 in (1953)
Month to date snowfall 1.1 3.4  
Since 1 July snowfall 74.3 65.8  
Snow Depth 0.00 in    
Sea Level Pressure  
Sea Level Pressure 29.74 in    
Wind  
Wind Speed 11 mph (WNW)    
Max Wind Speed 22 mph    
Max Gust Speed 28 mph    
Visibility 7 miles    
Events Rain    
T = Trace of Precipitation, MM = Missing Value Source: NWS Daily Summary

Daily Weather History Graph

Daily Weather History Graph

Search for Another Location

Airport or City:

Trip Planner

Search our weather history database for the weather conditions in past years. The results will help you decide how hot, cold, wet, or windy it might be!

Date:

Astronomy

Apr. 20, 2013 Rise Set
Actual Time 5:42 AM EDT 7:26 PM EDT
Civil Twilight 5:11 AM EDT 7:58 PM EDT
Nautical Twilight 4:33 AM EDT 8:36 PM EDT
Astronomical Twilight 3:52 AM EDT 9:17 PM EDT
Moon 1:54 PM EDT (4/20) 2:43 AM EDT (4/20)
Length of Visible Light 14h 47m
Length of Day
13h 44m
Waxing Gibbous, 71% of the Moon is Illuminated
Apr 20
Waxing Gibbous
Apr 25
Full
May 2
Last Quarter
May 9
New
May 18
First Quarter

Hourly Weather History & Observations

Time (EDT) Temp. Windchill Dew Point Humidity Pressure Visibility Wind Dir Wind Speed Gust Speed Precip Events Conditions
12:53 AM 53.1 °F - 53.1 °F 100% 29.60 in 4.0 mi South 18.4 mph 27.6 mph 0.00 in Rain Light Rain
1:53 AM 53.1 °F - 53.1 °F 100% 29.60 in 4.0 mi South 18.4 mph 25.3 mph 0.00 in   Overcast
2:53 AM 54.0 °F - 54.0 °F 100% 29.59 in 4.0 mi South 9.2 mph - 0.00 in   Overcast
3:53 AM 55.9 °F - 55.9 °F 100% 29.56 in 5.0 mi South 9.2 mph - 0.01 in Rain Light Rain
4:53 AM 54.0 °F - 54.0 °F 100% 29.56 in 7.0 mi South 11.5 mph - 0.05 in Rain Light Rain
5:53 AM 53.1 °F - 53.1 °F 100% 29.60 in 2.5 mi SSW 6.9 mph 18.4 mph 0.12 in Rain Rain
6:09 AM 51.8 °F - 50.0 °F 94% 29.59 in 4.0 mi NNE 12.7 mph - 0.04 in Rain Rain
6:32 AM 50.0 °F - 48.2 °F 94% 29.64 in 2.5 mi NW 12.7 mph - 0.07 in Rain Rain
6:46 AM 50.0 °F - 48.2 °F 94% 29.62 in 5.0 mi NNW 10.4 mph - 0.07 in Rain Light Rain
6:53 AM 50.0 °F - 48.0 °F 93% 29.61 in 9.0 mi North 10.4 mph - 0.07 in Rain Light Rain
7:01 AM 50.0 °F - 48.2 °F 94% 29.62 in 10.0 mi North 10.4 mph - 0.00 in Rain Light Rain
7:53 AM 46.9 °F - 45.0 °F 93% 29.65 in 3.0 mi NNW 6.9 mph - 0.06 in Rain Rain
8:21 AM 46.4 °F 41.9 °F 44.6 °F 93% 29.63 in 6.0 mi NNW 9.2 mph - 0.05 in Rain Light Rain
8:42 AM 46.4 °F 44.3 °F 44.6 °F 93% 29.68 in 2.0 mi NW 4.6 mph - 0.10 in Rain Heavy Rain
8:50 AM 46.4 °F 44.3 °F 44.6 °F 93% 29.68 in 3.0 mi NW 4.6 mph - 0.11 in Rain Light Rain
8:53 AM 46.0 °F 44.8 °F 45.0 °F 96% 29.68 in 5.0 mi NW 3.5 mph - 0.11 in Rain Light Rain
9:53 AM 45.0 °F 40.1 °F 43.0 °F 93% 29.71 in 4.0 mi NW 9.2 mph - 0.03 in Rain Light Rain
10:07 AM 44.6 °F 40.2 °F 42.8 °F 93% 29.72 in 8.0 mi WNW 8.1 mph - 0.00 in Rain Light Rain
10:53 AM 44.1 °F 39.0 °F 42.1 °F 93% 29.73 in 5.0 mi WNW 9.2 mph - 0.00 in Rain Light Rain
11:53 AM 46.0 °F 43.1 °F 43.0 °F 89% 29.74 in 10.0 mi WNW 5.8 mph - 0.00 in   Overcast
12:53 PM 50.0 °F - 37.0 °F 61% 29.76 in 10.0 mi West 11.5 mph 20.7 mph 0.01 in   Overcast
1:53 PM 53.1 °F - 32.0 °F 45% 29.76 in 10.0 mi West 10.4 mph 21.9 mph N/A   Overcast
2:53 PM 55.0 °F - 30.9 °F 40% 29.76 in 10.0 mi West 10.4 mph 17.3 mph N/A   Overcast
3:53 PM 54.0 °F - 28.0 °F 37% 29.79 in 10.0 mi WSW 10.4 mph 20.7 mph N/A   Overcast
4:53 PM 53.1 °F - 26.1 °F 35% 29.81 in 10.0 mi West 10.4 mph 18.4 mph N/A   Mostly Cloudy
5:53 PM 53.1 °F - 27.0 °F 37% 29.85 in 10.0 mi WSW 8.1 mph - N/A   Mostly Cloudy
6:53 PM 53.1 °F - 25.0 °F 34% 29.88 in 10.0 mi West 8.1 mph 20.7 mph N/A   Mostly Cloudy
7:53 PM 50.0 °F - 25.0 °F 38% 29.93 in 10.0 mi West 3.5 mph - N/A   Mostly Cloudy
8:53 PM 48.0 °F - 26.1 °F 42% 29.99 in 10.0 mi WNW 6.9 mph - N/A   Mostly Cloudy
9:53 PM 44.1 °F 37.1 °F 27.0 °F 51% 30.04 in 10.0 mi NW 15.0 mph 19.6 mph N/A   Scattered Clouds
10:53 PM 42.1 °F 36.6 °F 25.0 °F 51% 30.09 in 10.0 mi WNW 9.2 mph - N/A   Scattered Clouds
11:53 PM 39.9 °F 32.5 °F 24.1 °F 53% 30.12 in 10.0 mi NW 12.7 mph 19.6 mph N/A   Partly Cloudy